CAPE
0 0 0 0 0 0 0 0 0 0 0 0 0 0 0 0 0 0 0 0 0 0 0 0 0 0 0 0 0 0 0 163 649 882 894 859 911 921 1001 1080 1054 959 1149 833
0 0 0 0 0 0 0 0 0 0 0 0 0 0 0 0 0 0 0 0 0 0 0 0 0 0 0 0 0 0 0 162 450 706 830 848 961 1062 1140 1201 1158 1421 1071 1145
0 0 0 0 0 0 0 0 0 0 0 0 0 0 0 0 0 0 0 0 0 0 0 0 0 0 0 0 0 0 18 495 696 818 1092 1125 1058 1195 1325 1433 1486 1170 1082 1017
0 0 0 0 0 0 0 0 0 0 0 0 0 0 0 0 0 0 0 0 0 0 0 0 0 0 0 0 0 172 577 974 1146 1096 1234 1285 1287 1306 1265 1253 1157 840 708 533
0 0 0 0 0 0 0 0 0 0 0 0 0 0 0 0 0 0 0 0 0 0 0 0 0 0 0 0 293 953 1210 1431 1514 1510 1334 1373 1344 1304 1284 1209 1222 1094 374 450
0 0 0 0 0 0 0 0 0 0 0 0 0 0 0 0 0 0 0 0 0 0 0 0 0 0 9 662 1247 1455 1587 1692 1775 1796 1676 1523 1430 1359 1248 1259 1111 470 464 450
28 0 0 0 0 0 0 0 0 0 0 0 0 0 0 0 0 0 0 0 0 0 0 0 47 167 747 1326 1612 1707 1840 1961 2006 1961 1823 1659 1509 1386 1303 778 274 311 316 378
0 1 2 33 7 0 0 0 0 0 0 0 0 0 0 0 0 0 0 0 0 0 0 62 279 668 1274 1698 1728 1931 2022 2027 1944 1737 1589 1454 1284 801 438 308 353 369 335 158
40 4 61 50 23 13 0 0 0 0 0 0 0 0 0 0 0 0 0 0 0 0 48 285 604 932 1153 1542 1820 1978 1863 1697 1487 1343 1171 841 575 311 296 266 229 154 144 76
1 0 0 5 0 3 1 0 0 0 0 0 0 0 0 0 0 0 0 0 0 10 281 579 799 1025 1219 1453 1713 1733 1558 1339 1132 809 509 233 180 180 198 179 127 107 20 23
0 0 0 0 0 0 5 0 0 0 0 0 0 0 0 0 0 0 0 0 0 193 480 748 859 1006 1317 1432 1444 1310 1062 901 574 339 168 141 117 133 113 52 7 0 0 0
0 0 0 0 0 0 0 0 0 0 0 0 0 0 0 0 0 0 0 0 94 351 647 821 876 1008 1107 1154 1074 930 772 484 179 110 92 46 31 17 3 0 0 0 0 0
5 0 0 0 3 8 0 6 0 0 0 0 0 0 0 0 0 0 0 118 328 512 768 874 890 864 846 810 662 483 314 141 63 54 54 13 22 14 0 0 0 0 0 9
36 0 0 0 0 0 0 0 4 0 0 0 0 0 0 0 0 0 98 254 435 655 806 866 739 647 625 466 268 202 159 139 85 52 81 44 30 6 12 0 0 0 0 0
0 0 0 0 0 0 0 0 0 0 0 0 0 0 0 11 18 1 1 275 513 673 787 769 615 547 598 341 205 189 121 154 105 77 44 53 46 58 8 0 0 0 0 8
16 0 0 0 0 0 29 0 0 0 0 0 0 0 19 0 44 81 0 209 494 632 731 675 591 605 578 268 172 173 130 97 155 234 131 69 138 73 0 0 0 4 6 18
26 0 0 0 0 8 0 0 0 0 0 0 0 0 0 0 25 31 334 323 515 591 667 604 589 579 461 268 166 167 202 57 127 214 174 170 91 4 3 5 1 3 11 21
2 0 0 10 1 0 20 117 67 0 0 0 0 0 0 0 0 77 398 401 534 614 651 546 556 468 377 250 197 154 113 39 132 259 250 114 8 0 0 0 0 1 13 30
0 0 0 4 0 0 17 42 25 10 9 138 74 29 8 0 214 363 436 524 528 598 558 495 474 366 313 227 201 106 62 31 149 351 265 32 2 0 0 0 0 0 1 8
0 0 0 2 0 4 88 24 13 3 0 115 92 53 58 75 164 188 246 292 374 536 459 441 391 354 306 212 174 69 37 27 128 269 235 36 11 0 0 0 0 0 0 0
0 0 0 3 0 10 15 12 1 13 5 74 93 160 127 142 54 101 10 1 242 563 464 430 367 362 346 284 164 12 20 52 70 198 197 47 0 0 0 0 0 0 6 5
0 1 0 0 5 17 0 0 37 13 108 50 100 184 164 190 125 97 4 5 133 507 529 445 387 394 391 337 109 0 0 16 86 122 120 27 0 0 3 0 0 25 46 32
0 0 0 0 0 0 0 7 22 19 75 99 142 192 233 163 244 185 150 79 292 539 579 462 429 417 418 324 7 0 1 0 68 123 75 38 6 0 0 34 29 61 45 50
0 0 0 0 0 0 0 9 23 75 56 56 74 214 298 314 285 203 265 342 473 582 527 465 435 444 425 246 17 0 0 0 25 121 107 78 56 9 9 30 52 86 51 29
0 0 0 0 0 0 0 2 15 46 1 73 83 37 56 386 393 322 277 412 624 752 627 499 474 487 376 330 32 0 0 0 0 72 152 81 97 43 55 18 68 63 25 11
0 0 0 0 2 1 1 16 26 12 0 5 63 23 4 166 311 292 427 491 595 860 702 553 453 465 404 423 202 0 0 0 1 43 185 89 108 124 74 43 53 19 10 32
CIN
0 0 0 0 0 0 0 0 0 0 0 0 0 0 0 0 0 0 0 0 0 0 0 0 0 0 0 0 0 0 0 -628 -582 -486 -430 -343 -281 -349 -317 -216 -83 -78 -50 -67
0 0 0 0 0 0 0 0 0 0 0 0 0 0 0 0 0 0 0 0 0 0 0 0 0 0 0 0 0 0 -1 -872 -628 -559 -447 -376 -363 -339 -264 -108 -96 -51 -102 -79
0 0 0 0 0 0 0 0 0 0 0 0 0 0 0 0 0 0 0 0 0 0 0 0 0 0 0 0 0 0 -887 -741 -653 -543 -400 -345 -272 -212 -174 -118 -72 -81 -72 -39
0 0 0 0 0 0 0 0 0 0 0 0 0 0 0 0 0 0 0 0 0 0 0 0 0 0 0 0 0 -727 -755 -634 -509 -390 -305 -226 -199 -136 -123 -89 -46 -90 -73 -68
0 0 0 0 0 0 0 0 0 0 0 0 0 0 0 0 0 0 0 0 0 0 0 0 0 0 0 0 -795 -623 -558 -459 -384 -288 -219 -171 -117 -79 -51 -49 -21 -5 -72 -51
0 0 0 0 0 0 0 0 0 0 0 0 0 0 0 0 0 0 0 0 0 0 0 0 0 0 -328 -684 -516 -439 -388 -337 -282 -194 -142 -97 -68 -46 -50 -22 -11 -91 -33 -20
-13 0 0 0 0 0 0 0 0 0 0 0 0 0 0 0 0 0 0 0 0 0 0 0 -750 -747 -574 -438 -353 -292 -241 -221 -184 -126 -89 -62 -39 -21 -17 -64 -143 -98 -43 -20
0 -4 -5 -9 -1 0 0 0 0 0 0 0 0 0 0 0 0 0 0 0 0 0 0 -664 -613 -526 -396 -284 -253 -191 -158 -171 -135 -96 -79 -68 -58 -101 -125 -136 -75 -33 -25 -42
-9 -6 -6 -4 -1 -2 0 0 0 0 0 0 0 0 0 0 0 0 0 0 0 0 -721 -589 -495 -409 -346 -246 -157 -116 -138 -149 -126 -112 -105 -129 -145 -168 -126 -116 -90 -70 -49 -46
-3 0 -2 -21 0 -5 -1 0 0 0 0 0 0 0 0 0 0 0 0 0 0 -281 -577 -482 -388 -330 -265 -203 -143 -126 -127 -133 -126 -135 -153 -181 -169 -142 -114 -76 -77 -68 -107 -77
0 0 0 0 0 0 -2 0 0 0 0 0 0 0 0 0 0 0 0 0 0 -617 -500 -401 -322 -269 -181 -159 -147 -145 -164 -156 -165 -161 -175 -157 -162 -146 -124 -114 -34 0 -28 0
0 0 0 0 0 0 0 0 0 0 0 0 0 0 0 0 0 0 0 0 -731 -468 -415 -327 -292 -236 -198 -192 -188 -180 -174 -192 -223 -196 -200 -226 -231 -230 -151 0 0 0 0 0
-12 0 0 0 -1 -53 0 -7 0 0 0 0 0 0 0 0 0 0 0 -545 -515 -392 -344 -299 -270 -258 -251 -237 -237 -230 -227 -231 -241 -248 -216 -281 -218 -214 -28 0 0 0 0 -18
-37 0 0 0 0 0 0 0 -10 0 0 0 0 0 0 0 0 0 -304 -318 -333 -361 -335 -303 -291 -294 -288 -294 -303 -275 -237 -187 -198 -238 -186 -185 -198 -205 -159 0 0 0 0 0
0 0 0 0 0 -3 0 0 0 0 0 0 0 0 0 -6 -17 -2 -23 -259 -204 -327 -339 -303 -321 -316 -282 -301 -291 -242 -202 -154 -170 -203 -246 -239 -228 -134 -108 0 0 0 0 -34
-57 0 0 0 0 0 -7 0 0 0 0 0 0 0 -21 0 -8 -149 -28 -335 -195 -262 -320 -306 -320 -284 -268 -282 -254 -206 -185 -192 -147 -95 -225 -251 -100 -137 0 0 0 -27 -25 -21
-2 0 0 -2 -1 -3 0 0 0 0 0 0 0 0 0 -2 -15 -291 -149 -320 -226 -240 -303 -315 -306 -271 -258 -251 -225 -202 -158 -241 -179 -115 -160 -114 -151 -169 -5 -11 -5 -8 -18 -38
0 0 0 -4 -1 0 -14 -42 -39 0 0 0 0 0 0 0 0 -70 -163 -211 -147 -188 -273 -289 -284 -266 -225 -205 -195 -191 -191 -253 -197 -117 -126 -149 -268 0 0 0 0 -6 -37 -45
0 0 0 -1 -1 0 -26 -3 0 -13 -39 -12 -60 -65 -134 0 -85 -80 -109 -114 -74 -120 -203 -266 -265 -250 -206 -191 -175 -193 -214 -244 -174 -100 -97 -228 -157 0 0 -2 0 -1 -5 -33
0 0 0 -15 0 -1 0 -3 0 -8 0 -1 -64 -74 -92 -84 -46 -75 -46 -63 -81 -84 -126 -197 -216 -207 -177 -184 -178 -210 -233 -299 -158 -110 -92 -129 -161 0 0 0 0 0 0 0
0 0 0 -6 -6 -5 -3 -4 0 0 -14 -6 -38 -50 -49 -51 -101 -110 -383 -3 -68 -68 -96 -113 -161 -155 -141 -146 -178 -267 -252 -210 -161 -133 -93 -130 -20 0 0 0 0 0 -32 -47
0 -8 -1 -7 -7 -5 0 0 0 -13 -1 -2 -65 -27 -25 -28 -40 -83 -204 -142 -100 -56 -89 -84 -120 -107 -110 -121 -197 0 -52 -220 -141 -122 -111 -132 0 0 -77 0 0 -73 -43 -33
0 0 0 -1 0 0 0 -19 -2 -24 0 -14 -17 -14 -21 -43 -26 -83 -65 -43 -68 -64 -59 -71 -92 -87 -76 -111 -46 0 -73 0 -151 -117 -96 -83 -116 0 0 -66 -91 -56 -59 -41
0 0 0 0 0 0 0 -16 -1 -1 -28 0 -15 -5 0 -14 -48 -52 -62 -36 -124 -58 -36 -47 -87 -68 -80 -58 -171 0 0 0 -193 -140 -101 -83 -79 -108 -97 -87 -76 -40 -84 -64
0 0 0 0 -2 0 0 -3 -39 -3 -6 -4 -4 -9 -67 -7 -18 -58 -112 -87 -68 -29 -32 -52 -76 -69 -48 -40 -147 0 0 0 0 -168 -95 -96 -79 -97 -79 -123 -57 -37 -58 -48
0 0 0 0 -4 -3 -2 -6 -8 -9 0 -1 0 -13 -1 -26 -11 -23 -67 -79 -75 -58 -48 -63 -60 -59 -39 -35 -77 0 0 0 -159 -207 -112 -119 -88 -101 -124 -112 -93 -87 -26 -69
Wind_Speed
nan nan nan nan nan nan nan nan nan nan nan nan nan nan nan nan nan nan nan nan nan nan nan nan nan nan nan nan nan nan nan 37 43 44 42 38 34 38 33 34 41 38 36 35
nan nan nan nan nan nan nan nan nan nan nan nan nan nan nan nan nan nan nan nan nan nan nan nan nan nan nan nan nan nan nan 42 42 37 38 36 33 38 34 36 39 38 44 42
nan nan nan nan nan nan nan nan nan nan nan nan nan nan nan nan nan nan nan nan nan nan nan nan nan nan nan nan nan nan nan 38 40 40 39 37 38 32 31 37 36 32 36 39
nan nan nan nan nan nan nan nan nan nan nan nan nan nan nan nan nan nan nan nan nan nan nan nan nan nan nan nan nan 35 39 42 40 37 33 32 26 28 31 34 31 32 35 34
nan nan nan nan nan nan nan nan nan nan nan nan nan nan nan nan nan nan nan nan nan nan nan nan nan nan nan nan 33 36 40 33 32 29 31 26 30 31 31 33 34 31 31 30
nan nan nan nan nan nan nan nan nan nan nan nan nan nan nan nan nan nan nan nan nan nan nan nan nan nan nan 35 38 33 31 28 28 27 28 31 36 32 33 31 30 30 27 26
nan nan nan nan nan nan nan nan nan nan nan nan nan nan nan nan nan nan nan nan nan nan nan nan nan 27 32 38 35 31 25 22 25 27 29 32 32 31 33 31 29 27 24 26
nan nan nan nan nan nan nan nan nan nan nan nan nan nan nan nan nan nan nan nan nan nan nan nan 23 28 28 30 25 22 20 24 24 27 30 28 27 26 26 25 24 22 25 23
nan nan nan nan nan nan nan nan nan nan nan nan nan nan nan nan nan nan nan nan nan nan nan 21 25 21 21 20 20 20 22 25 27 28 27 24 25 24 21 23 22 24 21 nan
nan nan nan nan nan nan nan nan nan nan nan nan nan nan nan nan nan nan nan nan nan nan 20 23 20 16 14 16 18 21 25 27 26 24 22 21 19 21 21 24 25 18 nan nan
nan nan nan nan nan nan nan nan nan nan nan nan nan nan nan nan nan nan nan nan nan 18 20 22 16 15 17 16 18 21 25 25 21 21 19 20 19 21 23 nan nan nan nan nan
nan nan nan nan nan nan nan nan nan nan nan nan nan nan nan nan nan nan nan nan nan 17 17 16 13 17 16 17 18 21 20 20 18 18 nan nan nan nan nan nan nan nan nan nan
nan nan nan nan nan nan nan nan nan nan nan nan nan nan nan nan nan nan nan 23 17 14 13 12 13 14 15 17 17 19 17 16 nan nan nan nan nan nan nan nan nan nan nan nan
nan nan nan nan nan nan nan nan nan nan nan nan nan nan nan nan nan nan nan 26 13 12 12 14 13 15 16 16 17 17 12 13 nan nan nan nan nan nan nan nan nan nan nan nan
nan nan nan nan nan nan nan nan nan nan nan nan nan nan nan nan nan nan nan 21 9 6 15 15 12 14 16 16 15 12 11 10 13 nan nan nan nan nan nan nan nan nan nan nan
nan nan nan nan nan nan nan nan nan nan nan nan nan nan nan nan nan nan nan 15 6 3 12 11 15 17 18 17 13 11 11 nan 13 16 17 nan 14 nan nan nan nan nan nan nan
nan nan nan nan nan nan nan nan nan nan nan nan nan nan nan nan nan nan 34 17 4 1 11 11 16 18 17 15 10 11 10 nan 12 17 17 12 nan nan nan nan nan nan nan nan
nan nan nan nan nan nan nan 30 nan nan nan nan nan nan nan nan nan nan 37 23 14 4 10 12 16 17 14 10 8 9 8 nan 12 16 12 9 nan nan nan nan nan nan nan nan
nan nan nan nan nan nan nan nan nan nan nan 63 nan nan nan nan 46 39 33 32 27 14 10 15 15 15 11 8 9 8 nan nan 10 14 10 nan nan nan nan nan nan nan nan nan
nan nan nan nan nan nan nan nan nan nan nan 61 nan nan nan nan 43 35 32 37 35 21 18 9 12 11 7 7 9 nan nan nan 9 10 10 nan nan nan nan nan nan nan nan nan
nan nan nan nan nan nan nan nan nan nan nan nan nan 72 61 51 nan 43 nan nan 26 23 15 9 11 7 5 8 8 nan nan nan nan 9 11 nan nan nan nan nan nan nan nan nan
nan nan nan nan nan nan nan nan nan nan 48 nan 57 70 63 52 56 nan nan nan 33 21 12 9 10 5 5 5 6 nan nan nan nan 11 11 nan nan nan nan nan nan nan nan nan
nan nan nan nan nan nan nan nan nan nan nan nan 64 67 63 56 54 44 32 nan 40 31 15 11 6 9 7 1 nan nan nan nan nan 9 nan nan nan nan nan nan nan nan nan nan
nan nan nan nan nan nan nan nan nan nan nan nan nan 61 63 59 54 49 37 37 48 36 21 12 8 7 8 4 nan nan nan nan nan 8 6 nan nan nan nan nan nan nan nan nan
nan nan nan nan nan nan nan nan nan nan nan nan nan nan nan 60 56 56 43 38 44 41 31 16 5 4 7 5 nan nan nan nan nan nan 6 nan nan nan nan nan nan nan nan nan
nan nan nan nan nan nan nan nan nan nan nan nan nan nan nan 60 54 54 56 45 40 46 37 26 17 8 8 8 4 nan nan nan nan nan 4 nan 8 9 nan nan nan nan nan nan
Wind_Direction
nan nan nan nan nan nan nan nan nan nan nan nan nan nan nan nan nan nan nan nan nan nan nan nan nan nan nan nan nan nan nan 287 296 292 301 300 301 285 277 281 288 289 290 292
nan nan nan nan nan nan nan nan nan nan nan nan nan nan nan nan nan nan nan nan nan nan nan nan nan nan nan nan nan nan nan 294 295 304 299 290 278 270 279 278 284 289 295 302
nan nan nan nan nan nan nan nan nan nan nan nan nan nan nan nan nan nan nan nan nan nan nan nan nan nan nan nan nan nan nan 293 295 289 284 274 268 271 273 276 280 287 298 299
nan nan nan nan nan nan nan nan nan nan nan nan nan nan nan nan nan nan nan nan nan nan nan nan nan nan nan nan nan 288 283 288 290 289 288 291 280 285 275 281 282 290 295 305
nan nan nan nan nan nan nan nan nan nan nan nan nan nan nan nan nan nan nan nan nan nan nan nan nan nan nan nan 288 284 283 280 279 283 288 284 276 274 281 284 291 293 297 303
nan nan nan nan nan nan nan nan nan nan nan nan nan nan nan nan nan nan nan nan nan nan nan nan nan nan nan 274 272 267 269 273 275 281 278 283 287 284 286 289 289 295 296 302
nan nan nan nan nan nan nan nan nan nan nan nan nan nan nan nan nan nan nan nan nan nan nan nan nan 259 267 271 263 264 277 273 267 267 274 282 283 290 292 294 295 296 302 305
nan nan nan nan nan nan nan nan nan nan nan nan nan nan nan nan nan nan nan nan nan nan nan nan 264 270 272 265 262 270 274 268 271 274 275 277 285 285 286 292 295 299 300 300
nan nan nan nan nan nan nan nan nan nan nan nan nan nan nan nan nan nan nan nan nan nan nan 267 270 272 279 272 259 272 270 272 272 273 277 281 283 290 294 295 292 298 295 nan
nan nan nan nan nan nan nan nan nan nan nan nan nan nan nan nan nan nan nan nan nan nan 265 270 270 276 274 269 261 263 274 276 279 281 286 287 290 291 296 299 302 300 nan nan
nan nan nan nan nan nan nan nan nan nan nan nan nan nan nan nan nan nan nan nan nan 262 272 271 270 277 271 270 273 273 274 281 283 291 294 298 299 299 303 nan nan nan nan nan
nan nan nan nan nan nan nan nan nan nan nan nan nan nan nan nan nan nan nan nan nan 258 268 267 285 284 284 281 276 274 281 292 300 302 nan nan nan nan nan nan nan nan nan nan
nan nan nan nan nan nan nan nan nan nan nan nan nan nan nan nan nan nan nan 203 237 273 273 294 293 299 296 288 282 284 292 303 nan nan nan nan nan nan nan nan nan nan nan nan
nan nan nan nan nan nan nan nan nan nan nan nan nan nan nan nan nan nan nan 195 182 289 300 292 296 306 304 295 287 292 297 312 nan nan nan nan nan nan nan nan nan nan nan nan
nan nan nan nan nan nan nan nan nan nan nan nan nan nan nan nan nan nan nan 197 195 303 299 306 307 312 310 297 295 297 308 315 316 nan nan nan nan nan nan nan nan nan nan nan
nan nan nan nan nan nan nan nan nan nan nan nan nan nan nan nan nan nan nan 207 216 144 275 294 313 316 315 308 313 310 315 nan 309 323 324 nan 322 nan nan nan nan nan nan nan
nan nan nan nan nan nan nan nan nan nan nan nan nan nan nan nan nan nan 191 191 204 78 283 296 309 318 316 314 311 314 326 nan 323 328 328 324 nan nan nan nan nan nan nan nan
nan nan nan nan nan nan nan 224 nan nan nan nan nan nan nan nan nan nan 185 179 174 165 272 283 306 311 311 293 303 299 299 nan 334 339 346 351 nan nan nan nan nan nan nan nan
nan nan nan nan nan nan nan nan nan nan nan 206 nan nan nan nan 183 181 194 186 172 171 234 263 298 302 293 292 305 300 nan nan 337 340 349 nan nan nan nan nan nan nan nan nan
nan nan nan nan nan nan nan nan nan nan nan 197 nan nan nan nan 182 182 192 191 178 181 208 254 283 288 290 300 300 nan nan nan 358 342 359 nan nan nan nan nan nan nan nan nan
nan nan nan nan nan nan nan nan nan nan nan nan nan 178 177 187 nan 192 nan nan 177 176 206 199 258 298 321 297 286 nan nan nan nan 354 4 nan nan nan nan nan nan nan nan nan
nan nan nan nan nan nan nan nan nan nan 197 nan 174 182 181 187 199 nan nan nan 172 168 206 236 253 235 219 310 291 nan nan nan nan 9 9 nan nan nan nan nan nan nan nan nan
nan nan nan nan nan nan nan nan nan nan nan nan 177 179 180 194 199 199 178 nan 166 178 198 232 262 228 205 307 nan nan nan nan nan 8 nan nan nan nan nan nan nan nan nan nan
nan nan nan nan nan nan nan nan nan nan nan nan nan 186 195 206 204 205 192 186 181 183 182 220 246 248 215 186 nan nan nan nan nan 13 14 nan nan nan nan nan nan nan nan nan
nan nan nan nan nan nan nan nan nan nan nan nan nan nan nan 201 197 198 196 184 190 182 185 194 238 253 226 229 nan nan nan nan nan nan 37 nan nan nan nan nan nan nan nan nan
nan nan nan nan nan nan nan nan nan nan nan nan nan nan nan 204 212 196 185 180 188 190 191 194 195 192 218 235 234 nan nan nan nan nan 47 nan 89 100 nan nan nan nan nan nan